PEGASUS DEB, 24051

Orbit data source: Space-Track

PEGASUS DEB, 24051 is space debris in LEO originally from a launch on Thu, 19 May 1994 UTC launched from the Air Force Western Test Range (AFWTR). Debris objects in space refer to the collection of defunct objects orbiting the Earth. Examples of debris include non-operational satellites, rocket bodies, and fragments generated from explosions, collisions, or faulty payload assembly.

Loading next visibility...
Identifier
24051, 1994-029CY
Orbit
LEO
Country
Flag of USUS
Related business
Manufacturer
Unknown
Mission
Spacecraft
Bus & Motor
Unknown
Mass
Unknown
Launch date (UTC)
1994-05-19 (32 years ago)
Launch vehicle
Unknown
Launch site
Air Force Western Test Range (AFWTR)
Object type
Payload
Rocket body
Debris
Shape & HBR
Unknown shape, 0.1 m
Radar Cross Section
Small (<0.1 m²)

Expand to show TLE details & history
Last TLE update: 15 hours ago

TLE from 15 hours ago
0 PEGASUS DEB
1 24051U 94029CY  26048.51668652  .00012200  00000-0  23947-2 0  9997
2 24051  81.2915 157.7778 0342152 142.5117 315.8079 14.31464087499564
Epoch: 2026-02-17T12:24Z
TLE epoch observation values (Epoch: 2026-02-17T12:24:01.715Z)
Latitude
79.76217°
Longitude
-53.2325°
Altitude
628.562 km
Speed
7.641 km/s
True Right ascension
18h 41m 04s
True Declination
79° 42' 03"
Sunlit
Object was in daylight at epoch
Visualization orbit readout
Latitude
Unknown
Longitude
Unknown
Altitude
Unknown
Speed
Unknown
Apparent Right ascension
Unknown
Apparent Declination
Unknown
Sunlit
N/A
Visualization observer readout
Local Sidereal Time
06:23:11
Azimuth
Unknown
Elevation
Unknown
Doppler factor
Unknown
Orbital elements
Apogee altitude
1,029.033 km
Perigee altitude
538.926 km
Semi-major axis
7,162.116 km
Eccentricity
0.03422
Inclination
81.2915°
RAAN
157.7778°
Arg. of periapsis
142.5117°
True anomaly
312.98965°
Mean anomaly
315.8079°
Eccentric anomaly
314.40744°
Mean motion
3.58081 °/min
Orbital period
100.54 mins
BSTAR
0.0023947
Loading maneuver chart data...
Computing Atmospheric mass density...

Documentation

Showing up to 5 results
|